STARLINK-1709 (46561 NORAD) Tracking and Keplerian Element Data

This shows tracking and keplerian element data for the satellite.

Feedback or suggestion? Click here.




ElementValue
Catalog46561
NameSTARLINK-1709
Epoch Orbit181
Epoch Day336.91667824
Epoch Year2020
RAAN165.2718
Inclination52.9983
Eccentricity0.0002385
Argument of Perigee31.874
Mean Anonmoly352.1474
Mean Motion15.62723469
Decay Rate0.00052177
L11 46561U 20070AF 20336.91667824 .00052177 00000-0 57262-3 0 9995
L22 46561 52.9983 165.2718 0002385 31.8740 352.1474 15.62723469 1812

Live tracking and technical data element details for STARLINK-1709 (NORAD 46561). STARLINK-1709 can be tracked NOW for your location showing map with azimuth and elevation plus other details from your city location.

Track the satellite on the map from your city or location and see movement details for azimuth, elevation, latitude, longitude, range, height, and movement on the map or in text.







IsCatalogInMostPopularTable: catalog: 46561, numindb: 14
Update: records affected: 1



GetName: 46561 STARLINK-1709

Hit Count: updated at: Wed, 02 Dec 2020 19:38:27 GMT